QFA130 ZSPD-YSSY

Flight info

Callsign QFA130
Flight time N/A
Altitude 37000
Route LAM82D LAMEN A593 SADLI Y590 BEDAR Y591 ISPIT Z41 AGIKA G339 SABGU/N0483F360 A339 KEITH/N0479F370 R204 KEONE/N0474F390 R204 CS Y177 AKROM Y153 ROKUU H652 BOREE
Aircraft A332/H-SDE3GHIJ2J3J5M1RVWXY/LB2D1

Departure

Time 2026-05-05 17:20
Airport Shanghai Pudong International Airport (ZSPD)

Arrival

Time N/A
Airport Sydney Kingsford Smith International Airport (YSSY)
Time Latitude Longitude Altitude Speed Heading
2026-05-05 16:19 31.14908 121.80895 27 ft 0 kts 252°
2026-05-05 17:08 31.14913 121.80910 26 ft 4 kts 252°
2026-05-05 17:08 31.14921 121.80939 26 ft 4 kts 252°
2026-05-05 17:08 31.14928 121.80965 26 ft 3 kts 253°
2026-05-05 17:09 31.14929 121.80990 26 ft 4 kts 311°
2026-05-05 17:09 31.14909 121.81006 26 ft 2 kts 343°
2026-05-05 17:09 31.14928 121.80998 26 ft 4 kts 339°
2026-05-05 17:09 31.14951 121.80989 26 ft 1 kts 343°
2026-05-05 17:12 31.14954 121.80988 26 ft 0 kts 343°
2026-05-05 17:12 31.14984 121.80977 26 ft 13 kts 342°
2026-05-05 17:12 31.15091 121.80936 26 ft 16 kts 342°
2026-05-05 17:13 31.15199 121.80895 26 ft 16 kts 342°
2026-05-05 17:13 31.15305 121.80856 26 ft 16 kts 342°
2026-05-05 17:13 31.15408 121.80817 26 ft 15 kts 342°
2026-05-05 17:13 31.15508 121.80779 26 ft 15 kts 342°
2026-05-05 17:14 31.15606 121.80743 26 ft 15 kts 342°
2026-05-05 17:14 31.15702 121.80706 26 ft 14 kts 342°
2026-05-05 17:14 31.15810 121.80667 26 ft 16 kts 343°
2026-05-05 17:14 31.15916 121.80626 26 ft 16 kts 341°
2026-05-05 17:15 31.16019 121.80585 26 ft 15 kts 341°
2026-05-05 17:15 31.16102 121.80624 26 ft 13 kts 60°
2026-05-05 17:15 31.16137 121.80735 26 ft 15 kts 71°
2026-05-05 17:15 31.16141 121.80845 26 ft 13 kts 127°
2026-05-05 17:16 31.16063 121.80891 26 ft 12 kts 161°
2026-05-05 17:16 31.15984 121.80922 26 ft 12 kts 162°
2026-05-05 17:16 31.15905 121.80952 26 ft 12 kts 162°
2026-05-05 17:16 31.15846 121.81004 30 ft 10 kts 109°
2026-05-05 17:17 31.15857 121.81085 30 ft 10 kts 73°
2026-05-05 17:17 31.15875 121.81166 29 ft 9 kts 92°
2026-05-05 17:17 31.15835 121.81205 30 ft 7 kts 163°
2026-05-05 17:17 31.15826 121.81209 29 ft 0 kts 163°
2026-05-05 17:19 31.15715 121.81248 30 ft 44 kts 162°
2026-05-05 17:19 31.15257 121.81424 28 ft 95 kts 162°
2026-05-05 17:19 31.14474 121.81719 29 ft 140 kts 162°
2026-05-05 17:19 31.13434 121.82114 113 ft 170 kts 162°
2026-05-05 17:20 31.12304 121.82588 670 ft 171 kts 156°
2026-05-05 17:20 31.11284 121.83270 1353 ft 166 kts 153°
2026-05-05 17:20 31.10305 121.83979 1975 ft 170 kts 152°
2026-05-05 17:20 31.09251 121.84761 2237 ft 187 kts 150°
2026-05-05 17:21 31.08117 121.85608 2465 ft 201 kts 149°
2026-05-05 17:21 31.06887 121.86530 2647 ft 219 kts 149°
2026-05-05 17:21 31.05556 121.87538 2805 ft 239 kts 149°
2026-05-05 17:22 31.02638 121.89668 3868 ft 251 kts 148°
2026-05-05 17:22 31.01162 121.90823 4373 ft 261 kts 142°
2026-05-05 17:22 30.99765 121.92208 4800 ft 267 kts 139°
2026-05-05 17:22 30.98830 121.93194 4899 ft 269 kts 138°
2026-05-05 17:23 30.97466 121.94649 4931 ft 270 kts 138°
2026-05-05 17:23 30.96080 121.96127 4929 ft 270 kts 138°
2026-05-05 17:23 30.94718 121.97639 4940 ft 271 kts 132°
2026-05-05 17:23 30.93756 121.99508 5122 ft 272 kts 108°
2026-05-05 17:24 30.93603 122.01700 5612 ft 276 kts 81°
2026-05-05 17:24 30.94076 122.03874 6319 ft 278 kts 72°
2026-05-05 17:24 30.94679 122.06015 7001 ft 279 kts 71°
2026-05-05 17:24 30.95300 122.08173 7648 ft 283 kts 71°
2026-05-05 17:25 30.95925 122.10368 8265 ft 288 kts 72°
2026-05-05 17:25 30.96350 122.11872 8653 ft 292 kts 72°
2026-05-05 17:25 30.97185 122.14855 9523 ft 295 kts 72°
2026-05-05 17:25 30.97823 122.17146 10120 ft 301 kts 72°
2026-05-05 17:26 30.98485 122.19528 10388 ft 318 kts 72°
2026-05-05 17:26 30.99182 122.22045 10618 ft 335 kts 72°
2026-05-05 17:26 30.99825 122.24715 10860 ft 350 kts 80°
2026-05-05 17:26 31.00033 122.27602 11065 ft 365 kts 89°
2026-05-05 17:27 31.00047 122.30624 11281 ft 380 kts 91°
2026-05-05 17:27 31.00032 122.33741 11634 ft 389 kts 91°
2026-05-05 17:27 31.00019 122.36913 12048 ft 396 kts 91°
2026-05-05 17:27 31.00010 122.40142 12542 ft 399 kts 90°
2026-05-05 17:28 31.00007 122.43376 13111 ft 401 kts 90°
2026-05-05 17:28 31.00010 122.46649 13521 ft 407 kts 90°
2026-05-05 17:28 31.00015 122.49902 14016 ft 409 kts 90°
2026-05-05 17:28 31.00019 122.53221 14474 ft 411 kts 90°
2026-05-05 17:29 31.00023 122.56574 14867 ft 415 kts 90°
2026-05-05 17:29 31.00027 122.59946 15352 ft 417 kts 90°
2026-05-05 17:29 31.00029 122.63339 15753 ft 421 kts 90°
2026-05-05 17:29 31.00031 122.66772 16159 ft 425 kts 90°
2026-05-05 17:30 31.00032 122.70218 16659 ft 426 kts 89°
2026-05-05 17:30 31.00032 122.73685 17074 ft 429 kts 89°
2026-05-05 17:30 31.00031 122.77175 17519 ft 432 kts 89°
2026-05-05 17:30 31.00029 122.80683 17944 ft 434 kts 89°
2026-05-05 17:31 31.00026 122.84216 18353 ft 437 kts 89°
2026-05-05 17:31 31.00022 122.87768 18729 ft 439 kts 89°
2026-05-05 17:31 31.00017 122.91338 19095 ft 442 kts 89°
2026-05-05 17:31 31.00059 122.94922 19477 ft 443 kts 85°
2026-05-05 17:32 31.00490 122.98477 19838 ft 444 kts 75°
2026-05-05 17:32 31.01499 123.01876 20189 ft 444 kts 63°
2026-05-05 17:32 31.03045 123.04989 20542 ft 444 kts 54°
2026-05-05 17:32 31.04800 123.07904 20899 ft 446 kts 52°
2026-05-05 17:33 31.06623 123.10844 21243 ft 448 kts 52°
2026-05-05 17:33 31.08450 123.13794 21590 ft 451 kts 52°
2026-05-05 17:33 31.10287 123.16771 21926 ft 454 kts 52°
2026-05-05 17:33 31.12132 123.19773 22237 ft 456 kts 52°
2026-05-05 17:34 31.13987 123.22799 22588 ft 458 kts 52°
2026-05-05 17:34 31.15845 123.25835 22924 ft 461 kts 52°
2026-05-05 17:34 31.17706 123.28881 23259 ft 463 kts 52°
2026-05-05 17:34 31.19579 123.31949 23594 ft 465 kts 52°
2026-05-05 17:35 31.21461 123.35034 23850 ft 467 kts 52°
2026-05-05 17:35 31.23352 123.38137 24096 ft 470 kts 52°
2026-05-05 17:35 31.25253 123.41259 24348 ft 473 kts 52°
2026-05-05 17:35 31.27163 123.44398 24598 ft 475 kts 53°
2026-05-05 17:36 31.29081 123.47554 24840 ft 477 kts 53°
2026-05-05 17:36 31.30982 123.50683 25085 ft 479 kts 53°
2026-05-05 17:36 31.32918 123.53871 25329 ft 482 kts 53°
2026-05-05 17:36 31.34870 123.57069 25568 ft 484 kts 52°
2026-05-05 17:37 31.36834 123.60279 25792 ft 486 kts 52°
2026-05-05 17:37 31.38808 123.63505 26022 ft 488 kts 52°
2026-05-05 17:37 31.40789 123.66747 26287 ft 490 kts 52°
2026-05-05 17:37 31.42771 123.69994 26576 ft 491 kts 53°
2026-05-05 17:38 31.44769 123.73269 26657 ft 497 kts 53°
2026-05-05 17:38 31.46780 123.76568 26896 ft 498 kts 53°
2026-05-05 17:38 31.48801 123.79888 27137 ft 500 kts 53°
2026-05-05 17:38 31.50820 123.83208 27357 ft 502 kts 53°
2026-05-05 17:39 31.52856 123.86557 27579 ft 504 kts 53°
2026-05-05 17:39 31.54891 123.89907 27793 ft 506 kts 53°
2026-05-05 17:39 31.56937 123.93280 28007 ft 509 kts 53°
2026-05-05 17:39 31.58946 123.96638 28161 ft 512 kts 56°
2026-05-05 17:40 31.60712 124.00301 28158 ft 520 kts 65°
2026-05-05 17:40 31.61969 124.04283 28379 ft 522 kts 72°
2026-05-05 17:40 31.62999 124.08369 28605 ft 523 kts 75°
2026-05-05 17:40 31.63937 124.12500 28806 ft 525 kts 76°
2026-05-05 17:41 31.64835 124.16654 29068 ft 525 kts 76°
2026-05-05 17:41 31.65721 124.20809 29364 ft 525 kts 76°
2026-05-05 17:41 31.66614 124.24973 29440 ft 529 kts 77°
2026-05-05 17:41 31.67525 124.29180 29571 ft 532 kts 76°
2026-05-05 17:42 31.68443 124.33367 30102 ft 527 kts 76°
2026-05-05 17:42 31.69357 124.37514 30404 ft 526 kts 76°
2026-05-05 17:42 31.70275 124.41672 30599 ft 527 kts 76°
2026-05-05 17:42 31.71195 124.45837 30809 ft 527 kts 76°
2026-05-05 17:43 31.72115 124.50008 30952 ft 529 kts 77°
2026-05-05 17:43 31.73971 124.58457 31147 ft 535 kts 77°
2026-05-05 17:43 31.74898 124.62687 31415 ft 534 kts 77°
2026-05-05 17:44 31.75823 124.66913 31663 ft 534 kts 77°
2026-05-05 17:44 31.76746 124.71139 31878 ft 534 kts 77°
2026-05-05 17:44 31.77666 124.75360 32162 ft 533 kts 77°
2026-05-05 17:45 31.79514 124.83864 32349 ft 539 kts 77°
2026-05-05 17:45 31.80424 124.88063 32566 ft 538 kts 77°
2026-05-05 17:45 31.81347 124.92325 32802 ft 538 kts 78°
2026-05-05 17:45 31.82131 124.96616 32993 ft 536 kts 85°
2026-05-05 17:46 31.82395 125.00966 33134 ft 532 kts 95°
2026-05-05 17:46 31.81527 125.09581 33289 ft 530 kts 105°
2026-05-05 17:46 31.80864 125.13833 33529 ft 528 kts 106°
2026-05-05 17:47 31.80154 125.18063 33748 ft 527 kts 107°
2026-05-05 17:47 31.79431 125.22277 33943 ft 527 kts 107°
2026-05-05 17:47 31.78705 125.26510 34103 ft 528 kts 108°
2026-05-05 17:48 31.77272 125.34996 34292 ft 531 kts 107°
2026-05-05 17:48 31.76562 125.39256 34480 ft 530 kts 107°
2026-05-05 17:48 31.75859 125.43495 34638 ft 530 kts 107°
2026-05-05 17:48 31.75155 125.47742 34803 ft 530 kts 107°
2026-05-05 17:49 31.74460 125.51931 34974 ft 529 kts 107°
2026-05-05 17:49 31.73049 125.60436 35194 ft 532 kts 105°
2026-05-05 17:49 31.72676 125.64787 35329 ft 539 kts 95°
2026-05-05 17:50 31.72905 125.69218 35459 ft 546 kts 84°
2026-05-05 17:50 31.73635 125.73594 35611 ft 548 kts 80°
2026-05-05 17:50 31.74514 125.77951 35679 ft 550 kts 79°
2026-05-05 17:51 31.76481 125.86714 35712 ft 556 kts 78°
2026-05-05 17:51 31.77487 125.91094 35914 ft 554 kts 78°
2026-05-05 17:51 31.78481 125.95463 36106 ft 553 kts 78°
2026-05-05 17:51 31.79458 125.99828 36265 ft 552 kts 78°
2026-05-05 17:52 31.80422 126.04191 36468 ft 550 kts 78°
2026-05-05 17:52 31.81373 126.08528 36777 ft 546 kts 78°
2026-05-05 17:52 31.82312 126.12843 36949 ft 544 kts 78°
2026-05-05 17:52 31.83248 126.17156 37050 ft 545 kts 78°
2026-05-05 17:53 31.84184 126.21476 37109 ft 546 kts 78°
2026-05-05 17:53 31.86057 126.30145 37116 ft 549 kts 78°
2026-05-05 17:54 31.87926 126.38812 37105 ft 551 kts 78°
2026-05-05 17:54 31.89805 126.47550 37109 ft 550 kts 78°
2026-05-05 17:55 31.91709 126.56253 37110 ft 550 kts 78°
2026-05-05 17:55 31.93644 126.64996 37118 ft 553 kts 78°
2026-05-05 17:56 31.95580 126.73768 37113 ft 553 kts 78°
2026-05-05 17:56 31.97507 126.82553 37116 ft 555 kts 78°
2026-05-05 17:57 31.99417 126.91306 37118 ft 554 kts 78°
2026-05-05 17:57 32.01328 127.00085 37102 ft 553 kts 78°
2026-05-05 17:58 32.03234 127.08881 37118 ft 556 kts 77°
2026-05-05 17:58 32.05957 127.17447 37112 ft 559 kts 68°
2026-05-05 17:59 32.08992 127.25886 37107 ft 557 kts 73°
2026-05-05 17:59 32.09963 127.30292 37122 ft 553 kts 85°
2026-05-05 17:59 32.10246 127.34771 37120 ft 545 kts 98°
2026-05-05 17:59 32.09784 127.39166 37124 ft 533 kts 111°
2026-05-05 18:00 32.08619 127.43243 37119 ft 519 kts 124°
2026-05-05 18:00 32.05253 127.50693 37123 ft 513 kts 129°
2026-05-05 18:01 32.01602 127.57921 37123 ft 513 kts 130°
2026-05-05 18:01 31.97934 127.65142 37123 ft 514 kts 130°
2026-05-05 18:02 31.94302 127.72393 37103 ft 514 kts 130°
2026-05-05 18:02 31.90687 127.79659 37124 ft 514 kts 130°
2026-05-05 18:03 31.87099 127.86866 37124 ft 514 kts 130°
2026-05-05 18:03 31.83478 127.94122 37122 ft 514 kts 130°
2026-05-05 18:04 31.79852 128.01371 37123 ft 514 kts 130°
2026-05-05 18:04 31.76219 128.08617 37114 ft 514 kts 131°
2026-05-05 18:05 31.72582 128.15856 37119 ft 514 kts 131°
2026-05-05 18:05 31.68948 128.23081 37119 ft 515 kts 131°
2026-05-05 18:06 31.65297 128.30319 37124 ft 516 kts 131°
2026-05-05 18:06 31.61639 128.37563 37122 ft 516 kts 131°
2026-05-05 18:07 31.57978 128.44798 37114 ft 516 kts 131°
2026-05-05 18:07 31.54338 128.51978 37111 ft 515 kts 131°
2026-05-05 18:08 31.50646 128.59246 37119 ft 515 kts 131°